Flag for Canada Weather past 2 weeks in Trois-Rivieres, Quebec, Canada

Now
53 °F

Cool.


Feels Like: 51 °F
Forecast: 41 / 56 °F
Wind: 6 mph from East

Location: Trois Rivieres

Current Time: Apr 27, 2015 at 3:27:13 PM

Latest Report: Apr 27, 2015 at 3:00 PM


Visibility: N/A

Pressure: 29.72 "Hg

Humidity: 66%

Dew point: 42 °F

Location of Trois-RivieresLocation

Historic Weather in Trois-Rivieres — Graph

°F

Trois-Rivieres temperature yesterday

Maximum temperature yesterday: 46 °F (at 2:00 PM)
Minimum temperature yesterday: 35 °F (at 4:00 AM)
Average temperature yesterday: 42 °F

Past Weeks' High & Low Weather Summary

 TemperatureHumidityPressure
High64 °F (Apr 17, 4:00 PM)100% (Apr 13, 6:00 AM)30.49 "Hg (Apr 13, 6:00 AM)
Low29 °F (Apr 16, 6:00 AM)19% (Apr 15, 7:00 PM)29.46 "Hg (Apr 23, 9:00 AM)
Average42 °F73%29.90 "Hg
* Reported Apr 12 2:00 PM — Apr 27 2:00 PM, Trois-Rivieres, Weather by CustomWeather, © 2015

Note: Actual official high and low records may vary slightly from our data, if they occured in-between our weather recording intervals... More about our weather records

Advertising

Trois-Rivieres weather history for previous 24 hours

 ConditionsComfort  
Time TempWeatherWind HumidityBarometerVisibility
2:00 PM
Mon, Apr 27
52 °FCool.7 mph66%29.72 "HgN/A
1:00 PM53 °FCool.8 mph66%29.74 "HgN/A
12:00 PM51 °FCool.9 mph66%29.73 "HgN/A
11:00 AM49 °FCool.12 mph66%29.73 "HgN/A
10:00 AM47 °FCool.12 mph73%29.72 "HgN/A
9:00 AM45 °FQuite cool.9 mph84%29.71 "HgN/A
8:00 AM44 °FQuite cool.9 mph85%29.71 "HgN/A
7:00 AM41 °FQuite cool.1 mph97%29.70 "HgN/A
6:00 AM40 °FChilly.No wind97%29.69 "HgN/A
5:00 AM40 °FChilly.6 mph98%29.68 "HgN/A
4:00 AM39 °FChilly.5 mph98%29.68 "HgN/A
3:00 AM40 °FChilly.6 mph97%29.69 "HgN/A
2:00 AM40 °FChilly.2 mph96%29.70 "HgN/A
1:00 AM40 °FChilly.3 mph97%29.69 "HgN/A
12:00 AM38 °FChilly.3 mph100%29.70 "HgN/A
11:00 PM
Sun, Apr 26
41 °FQuite cool.5 mph95%29.70 "HgN/A
10:00 PM40 °FQuite cool.9 mph98%29.70 "HgN/A
9:00 PM44 °FQuite cool.6 mph89%29.70 "HgN/A
8:00 PM44 °FQuite cool.6 mph89%29.70 "HgN/A
7:00 PM46 °FCool.3 mph84%29.69 "HgN/A
6:00 PM44 °FQuite cool.8 mph90%29.69 "HgN/A
5:00 PM45 °FCool.5 mph85%29.68 "HgN/A
4:00 PM44 °FQuite cool.7 mph81%29.68 "HgN/A
3:00 PM44 °FQuite cool.10 mph87%29.68 "HgN/A
Weather by CustomWeather, © 2015

See weather overviewHow to use our weather pages